Weather Roundup
Issued by NWS

Home | Current Version | Previous Version | Graphics & Text | Print | Product List | Glossary Off
Versions: 1 2 3 4 5 6 7 8 9 10 11 12 13 14 15 16 17 18 19 20 21 22 23 24 25 26 27 28 29 30 31 32 33 34 35 36 37 38 39 40 41 42 43 44 45 46 47 48 49 50

050
NZUS93 KARX 170359
HRRWXR

CURRENT HOURLY OBSERVATIONS ACROSS
MUCH OF THE UPPER MISSISSIPPI VALLEY
NATIONAL WEATHER SERVICE LA CROSSE WI
1100 PM CDT WED AUG 16 2017


...SOUTHEAST MINNESOTA...


CITY           SKY/WX    TMP DP  RH WIND       PRES   REMARKS
ROCHESTER      PTCLDY    71  71 100 S9        29.66F
ROCHESTER/MAYO MOCLDY    72  72 100 SE5       29.65F
WINONA         CLOUDY    73  72  94 SE8       29.66F
AUSTIN         MOCLDY    72  66  83 SW16G22   29.66S
ALBERT LEA     CLOUDY    72  68  88 S8G16     29.65F
DODGE CENTER   CLEAR     72  70  94 S13       29.64F
PRESTON        CLOUDY    71  69  93 S7        29.68F
OWATONNA       CLEAR     72  66  83 S15G21    29.62F
FARIBAULT      MOCLDY    72  70  94 S10       29.61F
$$

...ELSEWHERE IN MINNESOTA...


CITY           SKY/WX    TMP DP  RH WIND       PRES   REMARKS
MINNEAPOLIS    CLOUDY    71  68  90 E9        29.60F
INTNL FALLS    LGT RAIN  61  59  93 E5        29.85F
DULUTH         LGT RAIN  60  59  96 E16G24    29.80F
RED WING       CLOUDY    72  70  94 MISG      29.61F
REDWOOD FALLS  LGT RAIN  66  64  93 NW23G31   29.53F
MANKATO        CLOUDY    69  67  93 S13       29.58F
WORTHINGTON    LGT RAIN  65  64  97 W13       29.70S
FAIRMONT       CLOUDY    67  65  93 W17G26    29.63S FOG
$$

...SOUTHWEST WISCONSIN...


CITY           SKY/WX    TMP DP  RH WIND       PRES   REMARKS
LA CROSSE      CLOUDY    77  73  87 SE9       29.66F
PRAIRIE DU CHI MOCLDY    75  71  88 SE6       29.71F
BOSCOBEL       CLOUDY    76  72  87 CALM      29.72F
LONE ROCK      NOT AVBL
PLATTEVILLE    PTCLDY    74  74 100 S9        29.76F
FORT MC COY    RAIN      69  68  96 SE8       29.73F
MAUSTON-NEW LI CLOUDY    70  69  97 E7        29.75F FOG
VIROQUA        CLOUDY    72  72 100 SE7       29.74F
WIS DELLS      CLOUDY    70  68  93 SE10      29.78F
$$

...ELSEWHERE IN WISCONSIN...


CITY           SKY/WX    TMP DP  RH WIND       PRES   REMARKS
MILWAUKEE      CLOUDY    73  71  93 SE7       29.82F
MADISON        LGT RAIN  72  71  97 E5        29.78F
GREEN BAY      CLOUDY    68  65  90 E6        29.85F
EAU CLAIRE     HVY RAIN  69  67  93 E20G32    29.66F FOG
BLACK RVR FLS  CLOUDY    71  71 100 SE9G16    29.71F
MEDFORD        LGT RAIN  65  62  90 E8G16     29.81F
WAUSAU         CLOUDY    66  61  84 E14       29.81F
WIS RAPIDS     RAIN      67  65  93 E10       29.80F FOG
MARSHFIELD     RAIN      67  63  87 E10G21    29.78F FOG
RICE LAKE      RAIN      67  65  93 E13G18    29.73F
$$

...NORTHEAST IOWA...


CITY           SKY/WX    TMP DP  RH WIND       PRES   REMARKS
WATERLOO       MOCLDY    74  69  85 S8        29.70F
DUBUQUE        MOCLDY    74  71  91 S12       29.75F
DECORAH        PTCLDY    73  72  94 S8G15     29.69F
MASON CITY     PTCLDY    69  65  86 SW15      29.70F
CHARLES CITY   MOCLDY    73  73 100 SW9G18    29.69F
OELWEIN        MOCLDY    75  73  94 S12       29.72S
$$

...ELSEWHERE IN IOWA...


CITY           SKY/WX    TMP DP  RH WIND       PRES   REMARKS
DES MOINES     CLOUDY    74  66  76 W12       29.75S
IOWA CITY      CLOUDY    78  72  81 S9        29.76F
FORT DODGE     CLEAR     66  63  88 SW12      29.74S
MARSHALLTOWN   CLOUDY    72  67  84 SW8       29.72S
CEDAR RAPIDS   CLOUDY    76  73  91 S14       29.73F
$$

...NORTHERN ILLINOIS...


CITY           SKY/WX    TMP DP  RH WIND       PRES   REMARKS
CHICAGO-OHARE  CLOUDY    78  73  84 S14G25    29.82F
CHICAGO-MIDWAY CLOUDY    81  72  74 S13       29.83F
MOLINE         CLOUDY    76  71  85 S12G18    29.76F
ROCKFORD       CLOUDY    76  73  91 S10       29.81S
PEORIA         MOCLDY    74  71  91 S9        29.83F
$$

NOTE: "FAIR" INDICATES FEW OR NO CLOUDS BELOW 12,000 FEET WITH NO
SIGNIFICANT WEATHER AND/OR OBSTRUCTIONS TO VISIBILITY. WIND
SPEEDS ARE IN MILES-PER-HOUR.




USA.gov is the U.S. government's official web portal to all federal, state and local government web resources and services.